| time (UTC) | temp F | wind direction | speed knots | gust knots | rain 1hr in | rain 24hr in | rain mn in | humidity % | barometer mb |
| 20260503005845 | 44 | 353 | 0.0 | 0.0 | 0.00 | 0.00 | 0.00 | 61 | 1017.2 |
| 20260503005343 | 44 | 308 | 0.0 | 0.0 | 0.00 | 0.00 | 0.00 | 60 | 1017.1 |
| 20260503004839 | 44 | 350 | 0.0 | 0.9 | 0.00 | 0.00 | 0.00 | 61 | 1017.0 |
| 20260503004336 | 44 | 29 | 0.0 | 0.0 | 0.00 | 0.00 | 0.00 | 61 | 1017.1 |
| 20260503003834 | 45 | 343 | 0.0 | 2.6 | 0.00 | 0.00 | 0.00 | 60 | 1017.2 |
| 20260503003331 | 45 | 84 | 1.7 | 2.6 | 0.00 | 0.00 | 0.00 | 59 | 1017.2 |
| 20260503002827 | 45 | 355 | 0.0 | 1.7 | 0.00 | 0.00 | 0.00 | 59 | 1016.7 |
| 20260503002324 | 45 | 16 | 1.7 | 2.6 | 0.00 | 0.00 | 0.00 | 58 | 1016.8 |
| 20260503001820 | 45 | 317 | 0.0 | 0.0 | 0.00 | 0.00 | 0.00 | 59 | 1017.0 |
| 20260503001317 | 45 | 343 | 0.0 | 0.0 | 0.00 | 0.00 | 0.00 | 59 | 1016.9 |
| 20260503000814 | 46 | 336 | 0.9 | 0.9 | 0.00 | 0.00 | 0.00 | 58 | 1016.9 |
| 20260503000312 | 46 | 322 | 0.9 | 2.6 | 0.00 | 0.00 | 0.00 | 58 | 1016.9 |
| 20260502235809 | 46 | 299 | 0.9 | 0.9 | 0.00 | 0.00 | 0.00 | 59 | 1016.8 |
| 20260502235306 | 46 | 323 | 0.0 | 0.9 | 0.00 | 0.00 | 0.00 | 58 | 1016.7 |
| 20260502234803 | 46 | 292 | 0.0 | 0.9 | 0.00 | 0.00 | 0.00 | 56 | 1016.5 |
| 20260502234300 | 47 | 25 | 0.9 | 0.9 | 0.00 | 0.00 | 0.00 | 55 | 1016.7 |
| 20260502233756 | 47 | 317 | 0.0 | 1.7 | 0.00 | 0.00 | 0.00 | 56 | 1016.6 |
| 20260502233253 | 47 | 311 | 6.1 | 7.8 | 0.00 | 0.00 | 0.00 | 54 | 1016.4 |
| 20260502232749 | 47 | 305 | 3.5 | 5.2 | 0.00 | 0.00 | 0.00 | 54 | 1016.7 |
| 20260502232246 | 47 | 315 | 2.6 | 3.5 | 0.00 | 0.00 | 0.00 | 54 | 1016.7 |
| 20260502231743 | 47 | 88 | 0.0 | 3.5 | 0.00 | 0.00 | 0.00 | 55 | 1016.6 |
| 20260502231240 | 47 | 331 | 4.3 | 7.0 | 0.00 | 0.00 | 0.00 | 55 | 1016.7 |
| 20260502230738 | 47 | 307 | 5.2 | 7.8 | 0.00 | 0.00 | 0.00 | 53 | 1016.6 |
| 20260502230236 | 47 | 322 | 0.9 | 2.6 | 0.00 | 0.00 | 0.00 | 55 | 1016.4 |
| 20260502225732 | 47 | 313 | 4.3 | 6.1 | 0.00 | 0.00 | 0.00 | 53 | 1016.4 |
| 20260502225229 | 48 | 333 | 3.5 | 7.8 | 0.00 | 0.00 | 0.00 | 54 | 1016.4 |
| 20260502224726 | 48 | 316 | 7.8 | 8.7 | 0.00 | 0.00 | 0.00 | 51 | 1016.5 |
| 20260502224222 | 50 | 332 | 2.6 | 5.2 | 0.00 | 0.00 | 0.00 | 51 | 1016.5 |
| 20260502223720 | 50 | 321 | 7.0 | 7.8 | 0.00 | 0.00 | 0.00 | 47 | 1016.4 |
| 20260502223218 | 48 | 326 | 0.9 | 5.2 | 0.00 | 0.00 | 0.00 | 50 | 1016.3 |
| 20260502222715 | 48 | 335 | 3.5 | 8.7 | 0.00 | 0.00 | 0.00 | 50 | 1016.4 |
| 20260502222212 | 48 | 303 | 4.3 | 7.8 | 0.00 | 0.00 | 0.00 | 52 | 1016.4 |
| 20260502221708 | 49 | 310 | 5.2 | 7.0 | 0.00 | 0.00 | 0.00 | 51 | 1016.3 |
| 20260502221204 | 49 | 350 | 2.6 | 3.5 | 0.00 | 0.00 | 0.00 | 52 | 1016.3 |
| 20260502220701 | 53 | 304 | 7.0 | 7.0 | 0.00 | 0.00 | 0.00 | 51 | 1016.3 |
| 20260502220157 | 53 | 71 | 0.9 | 1.7 | 0.00 | 0.00 | 0.00 | 50 | 1016.2 |
| 20260502215654 | 50 | 311 | 3.5 | 3.5 | 0.00 | 0.00 | 0.00 | 50 | 1016.2 |
| 20260502215151 | 49 | 75 | 6.1 | 7.8 | 0.00 | 0.00 | 0.00 | 50 | 1016.3 |
| 20260502214648 | 50 | 331 | 1.7 | 2.6 | 0.00 | 0.00 | 0.00 | 53 | 1016.3 |
| 20260502214145 | 49 | 347 | 0.9 | 2.6 | 0.00 | 0.00 | 0.00 | 53 | 1016.1 |
| 20260502213642 | 49 | 288 | 1.7 | 3.5 | 0.00 | 0.00 | 0.00 | 53 | 1016.1 |
| 20260502213140 | 49 | 29 | 3.5 | 5.2 | 0.00 | 0.00 | 0.00 | 51 | 1016.2 |
| 20260502212638 | 49 | 37 | 3.5 | 6.1 | 0.00 | 0.00 | 0.00 | 54 | 1016.3 |
| 20260502212136 | 49 | 22 | 2.6 | 5.2 | 0.00 | 0.00 | 0.00 | 54 | 1016.2 |
| 20260502211632 | 48 | 329 | 1.7 | 6.1 | 0.00 | 0.00 | 0.00 | 53 | 1016.2 |
| 20260502211129 | 48 | 305 | 3.5 | 5.2 | 0.00 | 0.00 | 0.00 | 51 | 1015.9 |
| 20260502210627 | 49 | 301 | 2.6 | 3.5 | 0.00 | 0.00 | 0.00 | 51 | 1015.9 |
| 20260502210124 | 49 | 292 | 1.7 | 3.5 | 0.00 | 0.00 | 0.00 | 50 | 1015.8 |
| 20260502205621 | 49 | 133 | 0.9 | 3.5 | 0.00 | 0.00 | 0.00 | 50 | 1015.7 |
| 20260502205117 | 51 | 321 | 2.6 | 7.0 | 0.00 | 0.00 | 0.00 | 50 | 1015.7 |
| 20260502204614 | 51 | 306 | 4.3 | 7.0 | 0.00 | 0.00 | 0.00 | 52 | 1015.8 |
| 20260502204111 | 50 | 74 | 2.6 | 7.0 | 0.00 | 0.00 | 0.00 | 53 | 1016.1 |
| 20260502203608 | 49 | 333 | 1.7 | 1.7 | 0.00 | 0.00 | 0.00 | 54 | 1016.1 |
| 20260502203105 | 49 | 319 | 3.5 | 3.5 | 0.00 | 0.00 | 0.00 | 55 | 1016.1 |
| 20260502202601 | 48 | 72 | 1.7 | 3.5 | 0.00 | 0.00 | 0.00 | 53 | 1016.2 |
| 20260502202059 | 48 | 319 | 9.6 | 9.6 | 0.00 | 0.00 | 0.00 | 57 | 1016.3 |
| 20260502201550 | 49 | 326 | 7.0 | 9.6 | 0.00 | 0.00 | 0.00 | 55 | 1016.1 |
| 20260502201047 | 50 | 335 | 2.6 | 5.2 | 0.00 | 0.00 | 0.00 | 52 | 1016.1 |
| 20260502200542 | 50 | 293 | 5.2 | 8.7 | 0.00 | 0.00 | 0.00 | 51 | 1016.2 |
| 20260502200040 | 52 | 298 | 8.7 | 11.3 | 0.00 | 0.00 | 0.00 | 51 | 1016.1 |
| 20260502195538 | 50 | 258 | 5.2 | 6.1 | 0.00 | 0.00 | 0.00 | 51 | 1016.3 |
| 20260502195034 | 50 | 127 | 0.0 | 7.8 | 0.00 | 0.00 | 0.00 | 51 | 1016.3 |
| 20260502194531 | 52 | 298 | 3.5 | 5.2 | 0.00 | 0.00 | 0.00 | 50 | 1016.1 |
| 20260502194027 | 51 | 336 | 3.5 | 6.1 | 0.00 | 0.00 | 0.00 | 56 | 1016.5 |
| 20260502193525 | 49 | 22 | 0.9 | 2.6 | 0.00 | 0.00 | 0.00 | 55 | 1016.6 |
| 20260502193021 | 49 | 82 | 3.5 | 7.0 | 0.00 | 0.00 | 0.00 | 59 | 1016.6 |
| 20260502192516 | 48 | 40 | 1.7 | 2.6 | 0.00 | 0.00 | 0.00 | 58 | 1016.7 |
| 20260502192014 | 48 | 296 | 0.9 | 2.6 | 0.00 | 0.00 | 0.00 | 59 | 1016.7 |
| 20260502191511 | 47 | 308 | 3.5 | 8.7 | 0.00 | 0.00 | 0.00 | 56 | 1016.8 |
| 20260502191009 | 48 | 310 | 7.0 | 8.7 | 0.00 | 0.00 | 0.00 | 55 | 1016.9 |
| 20260502190506 | 48 | 326 | 5.2 | 7.0 | 0.00 | 0.00 | 0.00 | 56 | 1016.9 |
| 20260502190003 | 49 | 357 | 2.6 | 5.2 | 0.00 | 0.00 | 0.00 | 57 | 1016.8 |
| 20260502185458 | 51 | 319 | 4.3 | 6.1 | 0.00 | 0.00 | 0.00 | 52 | 1016.9 |
| 20260502184954 | 49 | 301 | 1.7 | 3.5 | 0.00 | 0.00 | 0.00 | 54 | 1016.9 |
| 20260502184449 | 48 | 332 | 1.7 | 5.2 | 0.00 | 0.00 | 0.00 | 53 | 1016.8 |
| 20260502183946 | 49 | 31 | 1.7 | 3.5 | 0.00 | 0.00 | 0.00 | 54 | 1016.8 |
| 20260502183442 | 49 | 28 | 1.7 | 5.2 | 0.00 | 0.00 | 0.00 | 53 | 1016.8 |
| 20260502182937 | 48 | 315 | 3.5 | 5.2 | 0.00 | 0.00 | 0.00 | 55 | 1015.7 |
| 20260502182434 | 49 | 112 | 2.6 | 5.2 | 0.00 | 0.00 | 0.00 | 50 | 1015.4 |
| 20260502181929 | 48 | 120 | 4.3 | 8.7 | 0.00 | 0.00 | 0.00 | 51 | 1015.5 |
| 20260502181428 | 48 | 314 | 5.2 | 7.0 | 0.00 | 0.00 | 0.00 | 54 | 1015.5 |
| 20260502180926 | 48 | 311 | 5.2 | 7.0 | 0.00 | 0.00 | 0.00 | 55 | 1015.6 |
| 20260502180423 | 49 | 301 | 5.2 | 8.7 | 0.00 | 0.00 | 0.00 | 55 | 1015.6 |
| 20260502170342 | 47 | 304 | 7.0 | 8.7 | 0.00 | 0.00 | 0.00 | 55 | 1015.8 |
| 20260502164324 | 49 | 211 | 1.7 | 5.2 | 0.00 | 0.00 | 0.00 | 50 | 1015.9 |
| 20260502163820 | 50 | 226 | 1.7 | 7.0 | 0.00 | 0.00 | 0.00 | 47 | 1015.9 |
| 20260502163317 | 49 | 303 | 2.6 | 8.7 | 0.00 | 0.00 | 0.00 | 53 | 1016.2 |
| 20260502162814 | 50 | 315 | 3.5 | 5.2 | 0.00 | 0.00 | 0.00 | 53 | 1015.9 |
| 20260502162310 | 50 | 350 | 2.6 | 3.5 | 0.00 | 0.00 | 0.00 | 52 | 1016.1 |
| 20260502161808 | 49 | 351 | 1.7 | 6.1 | 0.00 | 0.00 | 0.00 | 54 | 1016.2 |
| 20260502161303 | 51 | 35 | 1.7 | 7.0 | 0.00 | 0.00 | 0.00 | 47 | 1016.1 |
| 20260502160801 | 51 | 119 | 1.7 | 3.5 | 0.00 | 0.00 | 0.00 | 45 | 1016.1 |
| 20260502160255 | 51 | 317 | 8.7 | 11.3 | 0.00 | 0.00 | 0.00 | 50 | 1016.2 |
| 20260502152229 | 49 | 286 | 5.2 | 7.0 | 0.00 | 0.00 | 0.00 | 57 | 1016.3 |
| 20260502151727 | 49 | 213 | 1.7 | 6.1 | 0.00 | 0.00 | 0.00 | 53 | 1016.2 |
| 20260502151223 | 49 | 321 | 0.0 | 1.7 | 0.00 | 0.00 | 0.00 | 51 | 1016.3 |
| 20260502150721 | 49 | 322 | 0.9 | 2.6 | 0.00 | 0.00 | 0.00 | 53 | 1016.2 |
| 20260502150218 | 49 | 82 | 1.7 | 6.1 | 0.00 | 0.00 | 0.00 | 56 | 1016.4 |
| 20260502130606 | 42 | 309 | 1.7 | 1.7 | 0.00 | 0.00 | 0.00 | 80 | 1016.5 |
| 20260502130104 | 42 | 148 | 0.0 | 0.0 | 0.00 | 0.00 | 0.00 | 83 | 1016.4 |
| 20260502123549 | 40 | 218 | 0.0 | 0.0 | 0.00 | 0.00 | 0.00 | 92 | 1016.3 |
| 20260502123045 | 39 | 211 | 0.0 | 0.0 | 0.00 | 0.00 | 0.00 | 93 | 1016.3 |
| 20260502122542 | 38 | 225 | 0.0 | 0.0 | 0.00 | 0.00 | 0.00 | 94 | 1015.9 |
| 20260502122040 | 38 | 207 | 0.0 | 0.0 | 0.00 | 0.00 | 0.00 | 94 | 1016.2 |
| 20260502121537 | 38 | 207 | 0.0 | 0.0 | 0.00 | 0.00 | 0.00 | 95 | 1016.3 |
| 20260502121034 | 37 | 207 | 0.0 | 0.0 | 0.00 | 0.00 | 0.00 | 95 | 1016.2 |
| 20260502120530 | 37 | 209 | 0.0 | 0.0 | 0.00 | 0.00 | 0.00 | 95 | 1016.2 |
| 20260502115525 | 37 | 255 | 0.0 | 0.0 | 0.00 | 0.00 | 0.00 | 96 | 1016.1 |
| 20260502115021 | 37 | 249 | 0.0 | 0.0 | 0.00 | 0.00 | 0.00 | 96 | 1016.1 |
| 20260502114518 | 37 | 265 | 0.0 | 0.0 | 0.00 | 0.00 | 0.00 | 96 | 1016.2 |
| 20260502114015 | 36 | 191 | 0.0 | 0.0 | 0.00 | 0.00 | 0.00 | 96 | 1016.2 |
| 20260502113512 | 36 | 192 | 0.0 | 0.0 | 0.00 | 0.00 | 0.00 | 96 | 1016.3 |
| 20260502113011 | 36 | 161 | 0.0 | 0.0 | 0.00 | 0.00 | 0.00 | 96 | 1016.3 |
| 20260502112508 | 35 | 158 | 0.0 | 0.0 | 0.00 | 0.00 | 0.00 | 96 | 1016.2 |
| 20260502112005 | 35 | 158 | 0.0 | 0.0 | 0.00 | 0.00 | 0.00 | 96 | 1016.2 |
| 20260502111503 | 35 | 158 | 0.0 | 0.0 | 0.00 | 0.00 | 0.00 | 96 | 1015.8 |
| 20260502111000 | 35 | 158 | 0.0 | 0.0 | 0.00 | 0.00 | 0.00 | 96 | 1015.9 |
| 20260502110457 | 35 | 158 | 0.0 | 0.0 | 0.00 | 0.00 | 0.00 | 96 | 1015.9 |
| 20260502105954 | 35 | 158 | 0.0 | 0.0 | 0.00 | 0.00 | 0.00 | 96 | 1016.1 |
| 20260502105452 | 35 | 158 | 0.0 | 0.0 | 0.00 | 0.00 | 0.00 | 96 | 1015.8 |
| 20260502104950 | 34 | 158 | 0.0 | 0.0 | 0.00 | 0.00 | 0.00 | 95 | 1015.9 |
| 20260502104447 | 34 | 158 | 0.0 | 0.0 | 0.00 | 0.00 | 0.00 | 95 | 1015.8 |
| 20260502103944 | 35 | 158 | 0.0 | 0.0 | 0.00 | 0.00 | 0.00 | 95 | 1015.7 |
| 20260502103441 | 35 | 163 | 0.0 | 0.0 | 0.00 | 0.00 | 0.00 | 95 | 1015.7 |
| 20260502102938 | 35 | 151 | 0.0 | 0.0 | 0.00 | 0.00 | 0.00 | 94 | 1016.1 |
| 20260502102435 | 35 | 151 | 0.0 | 0.0 | 0.00 | 0.00 | 0.00 | 94 | 1015.7 |
| 20260502101932 | 35 | 165 | 0.0 | 0.0 | 0.00 | 0.00 | 0.00 | 94 | 1015.9 |
| 20260502101430 | 35 | 178 | 0.0 | 0.0 | 0.00 | 0.00 | 0.00 | 94 | 1016.2 |
| 20260502100928 | 35 | 152 | 0.0 | 0.0 | 0.00 | 0.00 | 0.00 | 94 | 1016.1 |
| 20260502100427 | 35 | 152 | 0.0 | 0.0 | 0.00 | 0.00 | 0.00 | 93 | 1015.9 |
| 20260502091401 | 37 | 117 | 0.0 | 0.0 | 0.00 | 0.00 | 0.00 | 90 | 1016.3 |
| 20260502090859 | 37 | 149 | 0.0 | 0.0 | 0.00 | 0.00 | 0.00 | 90 | 1016.3 |
| 20260502090355 | 37 | 149 | 0.0 | 0.0 | 0.00 | 0.00 | 0.00 | 90 | 1016.4 |
| 20260502071250 | 41 | 297 | 0.0 | 0.0 | 0.00 | 0.00 | 0.00 | 78 | 1016.2 |
| 20260502070749 | 42 | 297 | 0.0 | 0.0 | 0.00 | 0.00 | 0.00 | 77 | 1015.9 |
| 20260502070246 | 42 | 288 | 0.0 | 0.0 | 0.00 | 0.00 | 0.00 | 78 | 1016.2 |
| 20260502065744 | 42 | 344 | 0.0 | 1.7 | 0.00 | 0.00 | 0.00 | 78 | 1016.2 |
| 20260502065242 | 42 | 320 | 1.7 | 1.7 | 0.00 | 0.00 | 0.00 | 81 | 1016.2 |
| 20260502064740 | 42 | 285 | 0.0 | 0.0 | 0.00 | 0.00 | 0.00 | 82 | 1016.2 |
| 20260502064238 | 42 | 282 | 0.0 | 0.0 | 0.00 | 0.00 | 0.00 | 78 | 1015.9 |
| 20260502063735 | 42 | 204 | 0.0 | 0.0 | 0.00 | 0.00 | 0.00 | 79 | 1016.1 |
| 20260502063233 | 42 | 276 | 0.0 | 0.0 | 0.00 | 0.00 | 0.00 | 79 | 1016.1 |
| 20260502062729 | 42 | 318 | 0.0 | 0.0 | 0.00 | 0.00 | 0.00 | 80 | 1016.3 |
| 20260502062222 | 42 | 299 | 0.0 | 1.7 | 0.00 | 0.00 | 0.00 | 80 | 1016.3 |
| 20260502061720 | 42 | 181 | 0.0 | 0.0 | 0.00 | 0.00 | 0.00 | 78 | 1016.4 |
| 20260502061217 | 41 | 250 | 0.0 | 0.0 | 0.00 | 0.00 | 0.00 | 78 | 1016.5 |
| 20260502060712 | 42 | 225 | 0.0 | 0.0 | 0.00 | 0.00 | 0.00 | 78 | 1016.4 |
| 20260502060209 | 42 | 157 | 0.0 | 0.0 | 0.00 | 0.00 | 0.00 | 77 | 1016.3 |
| 20260502055707 | 42 | 140 | 0.0 | 0.0 | 0.00 | 0.00 | 0.00 | 75 | 1016.2 |
| 20260502055204 | 42 | 141 | 0.0 | 0.0 | 0.00 | 0.00 | 0.00 | 76 | 1016.3 |
| 20260502054704 | 43 | 151 | 0.0 | 0.0 | 0.00 | 0.00 | 0.00 | 76 | 1016.3 |
| 20260502054200 | 43 | 89 | 0.0 | 0.0 | 0.00 | 0.00 | 0.00 | 71 | 1016.2 |
| 20260502053657 | 44 | 340 | 0.0 | 0.9 | 0.00 | 0.00 | 0.00 | 71 | 1016.4 |
| 20260502053154 | 44 | 3 | 0.0 | 0.0 | 0.00 | 0.00 | 0.00 | 71 | 1016.4 |
| 20260502052652 | 44 | 141 | 0.0 | 0.0 | 0.00 | 0.00 | 0.00 | 72 | 1016.3 |
| 20260502052150 | 44 | 332 | 0.0 | 0.0 | 0.00 | 0.00 | 0.00 | 70 | 1016.4 |
| 20260502051648 | 44 | 356 | 0.0 | 0.0 | 0.00 | 0.00 | 0.00 | 70 | 1016.5 |
| 20260502051146 | 44 | 307 | 0.0 | 1.7 | 0.00 | 0.00 | 0.00 | 70 | 1016.6 |
| 20260502050642 | 44 | 301 | 0.0 | 1.7 | 0.00 | 0.00 | 0.00 | 68 | 1016.6 |
| 20260502050138 | 45 | 98 | 0.0 | 1.7 | 0.00 | 0.00 | 0.00 | 67 | 1016.4 |
| 20260502045635 | 45 | 3 | 0.9 | 1.7 | 0.00 | 0.00 | 0.00 | 68 | 1016.4 |
| 20260502045133 | 45 | 59 | 2.6 | 3.5 | 0.00 | 0.00 | 0.00 | 65 | 1016.6 |
| 20260502044629 | 45 | 332 | 2.6 | 3.5 | 0.00 | 0.00 | 0.00 | 66 | 1016.6 |
| 20260502044126 | 45 | 267 | 0.0 | 1.7 | 0.00 | 0.00 | 0.00 | 67 | 1016.6 |
| 20260502043624 | 46 | 330 | 2.6 | 3.5 | 0.00 | 0.00 | 0.00 | 70 | 1016.5 |
| 20260502043120 | 46 | 327 | 1.7 | 1.7 | 0.00 | 0.00 | 0.00 | 72 | 1016.5 |
| 20260502042614 | 46 | 335 | 1.7 | 2.6 | 0.00 | 0.00 | 0.00 | 72 | 1016.5 |
| 20260502042112 | 46 | 355 | 0.0 | 0.9 | 0.00 | 0.00 | 0.00 | 73 | 1016.5 |
| 20260502041609 | 46 | 15 | 0.9 | 2.6 | 0.00 | 0.00 | 0.00 | 73 | 1016.6 |
| 20260502041106 | 47 | 19 | 1.7 | 2.6 | 0.00 | 0.00 | 0.00 | 74 | 1016.4 |
| 20260502040603 | 47 | 338 | 1.7 | 2.6 | 0.00 | 0.00 | 0.00 | 75 | 1016.3 |
| 20260502040100 | 47 | 338 | 0.9 | 1.7 | 0.00 | 0.00 | 0.00 | 75 | 1016.4 |
| 20260502035556 | 47 | 84 | 0.0 | 0.9 | 0.00 | 0.00 | 0.00 | 77 | 1016.4 |
| 20260502035054 | 47 | 282 | 1.7 | 1.7 | 0.00 | 0.00 | 0.00 | 78 | 1016.2 |
| 20260502034551 | 47 | 306 | 2.6 | 7.0 | 0.00 | 0.00 | 0.00 | 77 | 1016.3 |
| 20260502034049 | 47 | 308 | 0.9 | 5.2 | 0.00 | 0.00 | 0.00 | 77 | 1016.3 |
| 20260502033547 | 47 | 116 | 1.7 | 2.6 | 0.00 | 0.00 | 0.00 | 77 | 1016.2 |
| 20260502033044 | 47 | 40 | 0.9 | 2.6 | 0.00 | 0.00 | 0.00 | 76 | 1016.3 |
| 20260502032540 | 48 | 329 | 1.7 | 3.5 | 0.00 | 0.00 | 0.00 | 76 | 1016.2 |
| 20260502032037 | 48 | 14 | 0.0 | 1.7 | 0.00 | 0.00 | 0.00 | 76 | 1016.5 |
| 20260502031535 | 48 | 320 | 3.5 | 6.1 | 0.00 | 0.00 | 0.00 | 76 | 1016.3 |
| 20260502031033 | 48 | 328 | 0.0 | 2.6 | 0.00 | 0.00 | 0.00 | 76 | 1016.4 |
| 20260502030531 | 48 | 315 | 2.6 | 7.8 | 0.00 | 0.00 | 0.00 | 76 | 1016.4 |
| 20260502030029 | 48 | 2 | 2.6 | 3.5 | 0.00 | 0.00 | 0.00 | 75 | 1016.2 |
| 20260502025526 | 48 | 0 | 1.7 | 3.5 | 0.00 | 0.00 | 0.00 | 76 | 1016.3 |
| 20260502025024 | 48 | 14 | 0.9 | 2.6 | 0.00 | 0.00 | 0.00 | 75 | 1016.4 |
| 20260502024521 | 48 | 323 | 0.9 | 3.5 | 0.00 | 0.00 | 0.00 | 75 | 1016.2 |
| 20260502024020 | 48 | 307 | 0.0 | 0.9 | 0.00 | 0.00 | 0.00 | 75 | 1016.2 |
| 20260502023517 | 48 | 315 | 0.0 | 0.9 | 0.00 | 0.00 | 0.00 | 74 | 1016.1 |
| 20260502023014 | 48 | 12 | 0.0 | 2.6 | 0.00 | 0.00 | 0.00 | 75 | 1016.1 |
| 20260502022510 | 48 | 356 | 0.9 | 7.0 | 0.00 | 0.00 | 0.00 | 72 | 1016.1 |
| 20260502022008 | 48 | 355 | 0.0 | 1.7 | 0.00 | 0.00 | 0.00 | 72 | 1015.6 |
| 20260502021505 | 48 | 320 | 0.9 | 1.7 | 0.00 | 0.00 | 0.00 | 72 | 1016.1 |
| 20260502021001 | 49 | 341 | 0.9 | 0.9 | 0.00 | 0.00 | 0.00 | 70 | 1015.7 |
| 20260502020500 | 49 | 300 | 0.0 | 0.9 | 0.00 | 0.00 | 0.00 | 70 | 1015.6 |
| 20260502015956 | 49 | 95 | 1.7 | 1.7 | 0.00 | 0.00 | 0.00 | 71 | 1015.4 |
| 20260502015454 | 48 | 345 | 0.9 | 2.6 | 0.00 | 0.00 | 0.00 | 71 | 1015.6 |
| 20260502014950 | 49 | 323 | 0.9 | 1.7 | 0.00 | 0.00 | 0.00 | 71 | 1015.4 |
| 20260502014447 | 49 | 8 | 2.6 | 6.1 | 0.00 | 0.00 | 0.00 | 71 | 1015.2 |
| 20260502013944 | 49 | 91 | 0.9 | 2.6 | 0.00 | 0.00 | 0.00 | 70 | 1015.1 |
| 20260502013439 | 49 | 118 | 0.0 | 0.9 | 0.00 | 0.00 | 0.00 | 71 | 1014.9 |
| 20260502012936 | 49 | 89 | 0.9 | 1.7 | 0.00 | 0.00 | 0.00 | 71 | 1014.9 |
| 20260502012434 | 50 | 298 | 1.7 | 2.6 | 0.00 | 0.00 | 0.00 | 71 | 1014.9 |
| 20260502011931 | 50 | 287 | 1.7 | 2.6 | 0.00 | 0.00 | 0.00 | 69 | 1014.8 |
| 20260502011427 | 50 | 139 | 0.9 | 2.6 | 0.00 | 0.00 | 0.00 | 69 | 1014.6 |
| 20260502010924 | 50 | 301 | 3.5 | 6.1 | 0.00 | 0.00 | 0.00 | 70 | 1014.7 |
| 20260502010420 | 50 | 23 | 1.7 | 3.5 | 0.00 | 0.00 | 0.00 | 70 | 1014.7 |